EWG1WP EDDS-EDDP

Flight info

Callsign EWG1WP
Flight time 0h 39m
Altitude 35000
Route OKIBA4B OKIBA N851 RIMKI Z99 LOHRE N746 TIKNI T279 TAMEB T955 GOXLI GOXLI1R
Aircraft A320/M-SDE3FGHIRWY/LB1

Departure

Time 2026-05-07 18:51
Airport Stuttgart Airport (EDDS)

Arrival

Time 2026-05-07 19:31
Airport Leipzig/Halle Airport (EDDP)
Time Latitude Longitude Altitude Speed Heading
2026-05-07 18:15 48.68858 9.19294 1286 ft 0 kts 344°
2026-05-07 18:37 48.68849 9.19298 1285 ft 4 kts 346°
2026-05-07 18:38 48.68822 9.19306 1290 ft 4 kts 356°
2026-05-07 18:38 48.68797 9.19303 1285 ft 4 kts 31°
2026-05-07 18:38 48.68786 9.19287 1290 ft 0 kts 74°
2026-05-07 18:42 48.68793 9.19321 1287 ft 8 kts 74°
2026-05-07 18:42 48.68812 9.19421 1285 ft 11 kts 73°
2026-05-07 18:43 48.68836 9.19548 1289 ft 14 kts 74°
2026-05-07 18:43 48.68865 9.19699 1289 ft 16 kts 74°
2026-05-07 18:43 48.68888 9.19822 1285 ft 9 kts 77°
2026-05-07 18:43 48.68846 9.19884 1285 ft 10 kts 161°
2026-05-07 18:44 48.68828 9.19984 1285 ft 12 kts 77°
2026-05-07 18:44 48.68855 9.20126 1285 ft 17 kts 74°
2026-05-07 18:44 48.68888 9.20311 1285 ft 19 kts 74°
2026-05-07 18:44 48.68928 9.20515 1285 ft 21 kts 74°
2026-05-07 18:45 48.68971 9.20738 1285 ft 23 kts 74°
2026-05-07 18:45 48.69017 9.20979 1285 ft 25 kts 74°
2026-05-07 18:45 48.69065 9.21232 1287 ft 26 kts 74°
2026-05-07 18:45 48.69113 9.21485 1287 ft 25 kts 74°
2026-05-07 18:46 48.69162 9.21743 1285 ft 22 kts 74°
2026-05-07 18:46 48.69201 9.21950 1285 ft 21 kts 73°
2026-05-07 18:46 48.69243 9.22175 1285 ft 23 kts 75°
2026-05-07 18:46 48.69289 9.22416 1285 ft 22 kts 74°
2026-05-07 18:47 48.69331 9.22634 1285 ft 22 kts 74°
2026-05-07 18:47 48.69376 9.22869 1285 ft 24 kts 74°
2026-05-07 18:47 48.69424 9.23121 1288 ft 26 kts 74°
2026-05-07 18:47 48.69473 9.23379 1286 ft 25 kts 73°
2026-05-07 18:48 48.69514 9.23595 1288 ft 19 kts 74°
2026-05-07 18:48 48.69552 9.23798 1285 ft 21 kts 73°
2026-05-07 18:48 48.69587 9.23981 1287 ft 17 kts 74°
2026-05-07 18:48 48.69611 9.24120 1287 ft 10 kts 86°
2026-05-07 18:49 48.69587 9.24220 1288 ft 11 kts 118°
2026-05-07 18:49 48.69545 9.24293 1285 ft 9 kts 150°
2026-05-07 18:49 48.69488 9.24321 1287 ft 9 kts 164°
2026-05-07 18:49 48.69429 9.24345 1285 ft 8 kts 165°
2026-05-07 18:50 48.69391 9.24339 1285 ft 5 kts 230°
2026-05-07 18:50 48.69386 9.24301 1286 ft 0 kts 257°
2026-05-07 18:50 48.69384 9.24292 1285 ft 2 kts 257°
2026-05-07 18:50 48.69360 9.24160 1289 ft 40 kts 254°
2026-05-07 18:51 48.69218 9.23411 1288 ft 105 kts 254°
2026-05-07 18:51 48.68969 9.22091 1287 ft 154 kts 254°
2026-05-07 18:51 48.68653 9.20401 1607 ft 169 kts 256°
2026-05-07 18:51 48.68331 9.18692 2278 ft 168 kts 256°
2026-05-07 18:52 48.67997 9.16968 2772 ft 178 kts 255°
2026-05-07 18:52 48.67622 9.15056 3029 ft 201 kts 254°
2026-05-07 18:52 48.67206 9.12943 3288 ft 226 kts 254°
2026-05-07 18:52 48.67035 9.10509 3819 ft 239 kts 284°
2026-05-07 18:53 48.67791 9.08271 4632 ft 242 kts 307°
2026-05-07 18:53 48.69016 9.06531 5477 ft 246 kts 333°
2026-05-07 18:53 48.70700 9.05677 6054 ft 265 kts 344°
2026-05-07 18:53 48.72495 9.04898 6832 ft 272 kts 342°
2026-05-07 18:54 48.74351 9.04262 7636 ft 278 kts 356°
2026-05-07 18:54 48.76270 9.04752 8443 ft 286 kts 19°
2026-05-07 18:54 48.78136 9.05849 9266 ft 290 kts 20°
2026-05-07 18:54 48.80030 9.06975 10065 ft 294 kts 20°
2026-05-07 18:55 48.81988 9.08137 10454 ft 313 kts 20°
2026-05-07 18:55 48.84094 9.09385 10653 ft 336 kts 20°
2026-05-07 18:55 48.86351 9.10717 10797 ft 359 kts 20°
2026-05-07 18:55 48.88726 9.12118 11186 ft 371 kts 20°
2026-05-07 18:56 48.91120 9.13533 11790 ft 376 kts 20°
2026-05-07 18:56 48.93568 9.14982 12453 ft 379 kts 20°
2026-05-07 18:56 48.96027 9.16438 13163 ft 381 kts 20°
2026-05-07 18:56 48.98506 9.17907 13813 ft 384 kts 21°
2026-05-07 18:57 49.01009 9.19393 14013 ft 385 kts 21°
2026-05-07 18:57 49.03508 9.20881 14066 ft 385 kts 21°
2026-05-07 18:57 49.06003 9.22369 14068 ft 385 kts 21°
2026-05-07 18:57 49.08499 9.23857 14065 ft 385 kts 20°
2026-05-07 18:58 49.10974 9.25423 14067 ft 385 kts 26°
2026-05-07 18:58 49.13349 9.27324 14071 ft 386 kts 27°
2026-05-07 18:58 49.15709 9.29279 14074 ft 386 kts 28°
2026-05-07 18:58 49.18066 9.31265 14271 ft 390 kts 28°
2026-05-07 18:59 49.20439 9.33279 14942 ft 391 kts 28°
2026-05-07 18:59 49.22796 9.35280 15523 ft 395 kts 27°
2026-05-07 18:59 49.25211 9.37324 16092 ft 399 kts 27°
2026-05-07 18:59 49.27644 9.39376 16657 ft 403 kts 27°
2026-05-07 19:00 49.30120 9.41458 17234 ft 407 kts 27°
2026-05-07 19:00 49.32617 9.43555 17812 ft 411 kts 26°
2026-05-07 19:00 49.35140 9.45675 18387 ft 416 kts 26°
2026-05-07 19:00 49.37687 9.47820 18951 ft 418 kts 27°
2026-05-07 19:01 49.40238 9.49976 19531 ft 420 kts 27°
2026-05-07 19:01 49.42802 9.52151 20067 ft 423 kts 27°
2026-05-07 19:01 49.45385 9.54347 20595 ft 425 kts 27°
2026-05-07 19:01 49.47980 9.56553 21085 ft 428 kts 27°
2026-05-07 19:02 49.50558 9.58742 21546 ft 430 kts 27°
2026-05-07 19:02 49.53179 9.60974 22004 ft 432 kts 27°
2026-05-07 19:02 49.55818 9.63226 22434 ft 435 kts 27°
2026-05-07 19:02 49.58469 9.65487 22881 ft 436 kts 27°
2026-05-07 19:03 49.61133 9.67753 23319 ft 438 kts 27°
2026-05-07 19:03 49.63806 9.70029 23718 ft 440 kts 27°
2026-05-07 19:03 49.66495 9.72325 24055 ft 443 kts 27°
2026-05-07 19:03 49.69195 9.74640 24389 ft 444 kts 27°
2026-05-07 19:04 49.71901 9.76969 24733 ft 446 kts 27°
2026-05-07 19:04 49.74616 9.79309 25069 ft 448 kts 27°
2026-05-07 19:04 49.77345 9.81659 25401 ft 450 kts 27°
2026-05-07 19:04 49.80049 9.83994 25736 ft 452 kts 27°
2026-05-07 19:05 49.82799 9.86373 26067 ft 454 kts 27°
2026-05-07 19:05 49.85559 9.88762 26396 ft 455 kts 27°
2026-05-07 19:05 49.88329 9.91157 26708 ft 457 kts 27°
2026-05-07 19:05 49.91106 9.93555 27089 ft 457 kts 27°
2026-05-07 19:06 49.93878 9.95954 27552 ft 455 kts 27°
2026-05-07 19:06 49.99394 10.00735 28503 ft 453 kts 27°
2026-05-07 19:06 50.02138 10.03124 28972 ft 451 kts 28°
2026-05-07 19:07 50.04873 10.05514 29460 ft 450 kts 28°
2026-05-07 19:07 50.07597 10.07893 29941 ft 449 kts 28°
2026-05-07 19:07 50.10272 10.10237 30374 ft 448 kts 28°
2026-05-07 19:07 50.12995 10.12630 30767 ft 448 kts 28°
2026-05-07 19:08 50.15708 10.15012 31139 ft 448 kts 28°
2026-05-07 19:08 50.18424 10.17392 31515 ft 448 kts 27°
2026-05-07 19:08 50.21141 10.19769 31894 ft 448 kts 28°
2026-05-07 19:08 50.23853 10.22150 32283 ft 448 kts 28°
2026-05-07 19:09 50.26567 10.24539 32670 ft 448 kts 28°
2026-05-07 19:09 50.29278 10.26938 33010 ft 448 kts 28°
2026-05-07 19:09 50.34706 10.31748 33091 ft 448 kts 28°
2026-05-07 19:10 50.37434 10.34160 32835 ft 455 kts 28°
2026-05-07 19:10 50.40194 10.36606 32160 ft 457 kts 28°
2026-05-07 19:10 50.42964 10.39065 31526 ft 458 kts 28°
2026-05-07 19:10 50.45676 10.41477 30905 ft 454 kts 28°
2026-05-07 19:11 50.48426 10.43927 30277 ft 450 kts 28°
2026-05-07 19:11 50.51139 10.46350 29572 ft 447 kts 29°
2026-05-07 19:11 50.53830 10.48757 28860 ft 443 kts 28°
2026-05-07 19:11 50.56499 10.51143 28167 ft 440 kts 29°
2026-05-07 19:12 50.59150 10.53515 27487 ft 436 kts 28°
2026-05-07 19:12 50.61780 10.55869 26825 ft 433 kts 28°
2026-05-07 19:12 50.64391 10.58214 26181 ft 431 kts 29°
2026-05-07 19:12 50.66982 10.60544 25551 ft 428 kts 29°
2026-05-07 19:13 50.69560 10.62864 24940 ft 425 kts 29°
2026-05-07 19:13 50.72129 10.65185 24330 ft 423 kts 29°
2026-05-07 19:13 50.74662 10.67480 23739 ft 420 kts 29°
2026-05-07 19:13 50.77153 10.69754 23066 ft 418 kts 31°
2026-05-07 19:14 50.79493 10.72475 22376 ft 417 kts 40°
2026-05-07 19:14 50.81523 10.75748 21709 ft 416 kts 50°
2026-05-07 19:14 50.83194 10.79476 21064 ft 415 kts 58°
2026-05-07 19:14 50.84653 10.83410 20432 ft 414 kts 59°
2026-05-07 19:15 50.86095 10.87299 20125 ft 404 kts 58°
2026-05-07 19:15 50.87500 10.91090 19745 ft 398 kts 58°
2026-05-07 19:15 50.88905 10.94879 19130 ft 399 kts 58°
2026-05-07 19:15 50.90314 10.98666 18533 ft 399 kts 58°
2026-05-07 19:16 50.91725 11.02460 17880 ft 399 kts 58°
2026-05-07 19:16 50.93129 11.06254 17209 ft 399 kts 59°
2026-05-07 19:16 50.94526 11.10048 16554 ft 399 kts 58°
2026-05-07 19:16 50.95972 11.13933 15915 ft 419 kts 58°
2026-05-07 19:17 50.97467 11.17943 15283 ft 423 kts 58°
2026-05-07 19:17 50.98940 11.21899 14676 ft 421 kts 58°
2026-05-07 19:17 51.00324 11.25620 14121 ft 418 kts 58°
2026-05-07 19:17 51.01607 11.29071 13569 ft 415 kts 58°
2026-05-07 19:18 51.03063 11.32997 12902 ft 410 kts 58°
2026-05-07 19:18 51.04498 11.36882 12242 ft 405 kts 58°
2026-05-07 19:18 51.05911 11.40719 11608 ft 400 kts 58°
2026-05-07 19:18 51.07297 11.44513 10995 ft 394 kts 58°
2026-05-07 19:19 51.08654 11.48266 10399 ft 388 kts 58°
2026-05-07 19:19 51.09970 11.51917 10143 ft 371 kts 59°
2026-05-07 19:19 51.11216 11.55388 10078 ft 348 kts 59°
2026-05-07 19:19 51.12351 11.58567 10102 ft 315 kts 59°
2026-05-07 19:20 51.13382 11.61476 10101 ft 294 kts 58°
2026-05-07 19:20 51.14379 11.64299 10095 ft 291 kts 59°
2026-05-07 19:20 51.15370 11.67107 10103 ft 290 kts 59°
2026-05-07 19:20 51.16344 11.69870 10064 ft 291 kts 59°
2026-05-07 19:21 51.17338 11.72691 9667 ft 292 kts 59°
2026-05-07 19:21 51.18333 11.75516 9261 ft 292 kts 59°
2026-05-07 19:21 51.19325 11.78336 8865 ft 292 kts 59°
2026-05-07 19:21 51.20317 11.81157 8473 ft 291 kts 59°
2026-05-07 19:22 51.21307 11.83965 8085 ft 290 kts 59°
2026-05-07 19:22 51.22312 11.86757 7703 ft 289 kts 59°
2026-05-07 19:22 51.23318 11.89529 7322 ft 288 kts 59°
2026-05-07 19:22 51.24330 11.92284 6946 ft 287 kts 56°
2026-05-07 19:23 51.25687 11.94554 6583 ft 283 kts 31°
2026-05-07 19:23 51.27519 11.95597 6195 ft 281 kts
2026-05-07 19:23 51.29411 11.95207 5813 ft 280 kts 339°
2026-05-07 19:23 51.31022 11.93502 5421 ft 280 kts 318°
2026-05-07 19:24 51.32404 11.91307 5056 ft 279 kts 315°
2026-05-07 19:24 51.33731 11.89125 4996 ft 267 kts 314°
2026-05-07 19:24 51.35016 11.87007 4999 ft 264 kts 315°
2026-05-07 19:24 51.36255 11.84941 4991 ft 250 kts 314°
2026-05-07 19:25 51.37593 11.83341 4997 ft 233 kts 341°
2026-05-07 19:25 51.39164 11.83091 4995 ft 229 kts 12°
2026-05-07 19:25 51.40574 11.84205 4898 ft 231 kts 43°
2026-05-07 19:25 51.41385 11.86401 4492 ft 234 kts 78°
2026-05-07 19:26 51.41560 11.89000 4095 ft 236 kts 85°
2026-05-07 19:26 51.41673 11.91623 3694 ft 233 kts 85°
2026-05-07 19:26 51.41794 11.94175 3309 ft 226 kts 85°
2026-05-07 19:26 51.41916 11.96635 3018 ft 214 kts 85°
2026-05-07 19:27 51.42026 11.98870 3002 ft 195 kts 84°
2026-05-07 19:27 51.42129 12.00963 2945 ft 183 kts 84°
2026-05-07 19:27 51.42226 12.02943 2805 ft 176 kts 84°
2026-05-07 19:27 51.42321 12.04882 2547 ft 173 kts 83°
2026-05-07 19:28 51.42414 12.06795 2314 ft 172 kts 83°
2026-05-07 19:28 51.42505 12.08677 2076 ft 165 kts 84°
2026-05-07 19:28 51.42590 12.10437 1869 ft 149 kts 83°
2026-05-07 19:28 51.42667 12.12045 1665 ft 141 kts 83°
2026-05-07 19:29 51.42742 12.13591 1461 ft 138 kts 83°
2026-05-07 19:29 51.42815 12.15118 1276 ft 137 kts 84°
2026-05-07 19:29 51.42888 12.16640 1086 ft 137 kts 84°
2026-05-07 19:29 51.42961 12.18165 888 ft 138 kts 84°
2026-05-07 19:30 51.43031 12.19674 714 ft 137 kts 84°
2026-05-07 19:30 51.43105 12.21189 536 ft 136 kts 85°
2026-05-07 19:30 51.43173 12.22662 438 ft 119 kts 85°
2026-05-07 19:30 51.43226 12.23732 450 ft 79 kts 86°
2026-05-07 19:31 51.43250 12.24277 434 ft 28 kts 89°
2026-05-07 19:31 51.43222 12.24556 447 ft 18 kts 110°
2026-05-07 19:31 51.43169 12.24736 452 ft 18 kts 118°
2026-05-07 19:31 51.43115 12.24923 451 ft 15 kts 114°
2026-05-07 19:32 51.43083 12.25034 453 ft 10 kts 115°
2026-05-07 19:32 51.43059 12.25118 452 ft 10 kts 115°
2026-05-07 19:32 51.43027 12.25219 452 ft 9 kts 118°
2026-05-07 19:32 51.42969 12.25273 450 ft 13 kts 184°
2026-05-07 19:33 51.42869 12.25236 452 ft 16 kts 193°
2026-05-07 19:33 51.42742 12.25190 459 ft 21 kts 193°
2026-05-07 19:33 51.42596 12.25133 466 ft 22 kts 195°
2026-05-07 19:33 51.42436 12.25072 475 ft 25 kts 193°
2026-05-07 19:34 51.42274 12.25009 480 ft 23 kts 193°
2026-05-07 19:34 51.42120 12.24949 489 ft 22 kts 193°
2026-05-07 19:34 51.41967 12.24891 491 ft 22 kts 194°
2026-05-07 19:34 51.41797 12.24826 479 ft 27 kts 193°
2026-05-07 19:35 51.41724 12.24799 473 ft 11 kts 193°
2026-05-07 19:35 51.41665 12.24717 475 ft 10 kts 257°
2026-05-07 19:35 51.41659 12.24593 475 ft 13 kts 267°
2026-05-07 19:35 51.41652 12.24427 474 ft 17 kts 266°
2026-05-07 19:36 51.41645 12.24230 475 ft 19 kts 264°
2026-05-07 19:36 51.41631 12.23995 470 ft 24 kts 265°
2026-05-07 19:36 51.41617 12.23715 468 ft 24 kts 265°
2026-05-07 19:36 51.41606 12.23466 460 ft 20 kts 265°
2026-05-07 19:37 51.41600 12.23254 464 ft 20 kts 274°
2026-05-07 19:37 51.41634 12.23028 464 ft 22 kts 285°
2026-05-07 19:37 51.41678 12.22771 464 ft 25 kts 285°
2026-05-07 19:37 51.41728 12.22483 458 ft 20 kts 285°
2026-05-07 19:38 51.41760 12.22297 453 ft 18 kts 285°
2026-05-07 19:38 51.41791 12.22109 448 ft 14 kts 283°
2026-05-07 19:38 51.41815 12.21970 445 ft 13 kts 287°
2026-05-07 19:38 51.41841 12.21824 431 ft 12 kts 285°
2026-05-07 19:39 51.41866 12.21674 429 ft 16 kts 285°
2026-05-07 19:39 51.41901 12.21473 430 ft 21 kts 285°
2026-05-07 19:39 51.41930 12.21308 426 ft 13 kts 284°
2026-05-07 19:39 51.41945 12.21218 428 ft 5 kts 285°
2026-05-07 19:40 51.41981 12.21204 427 ft 2 kts 11°
2026-05-07 19:40 51.42005 12.21216 431 ft 4 kts 16°
2026-05-07 19:40 51.42023 12.21224 431 ft 0 kts 16°